CW8680 Weather Reports


time (UTC)temp
C
wind
direction
speed
KPH
gust
KPH
rain 1hr
cm
rain 24hr
cm
rain mn
cm
humidity
%
barometer
mb
20260506201550 13 246 3.2 0.0 0.00 0.00 0.36 94 1005.9
20260506200048 13 243 3.2 0.0 0.00 0.00 0.30 94 1006.0
20260506194547 13 131 3.2 0.0 0.00 0.00 0.23 93 1006.1
20260506193045 13 138 4.8 0.0 0.00 0.00 0.18 93 1006.3
20260506191549 13 335 4.8 0.0 0.00 0.00 0.18 93 1006.3
20260506190044 13 57 3.2 0.0 0.00 0.00 0.15 93 1006.5
20260506184556 13 165 4.8 0.0 0.00 0.00 0.15 93 1006.5
20260506183041 13 259 4.8 0.0 0.00 0.00 0.15 92 1006.8
20260506181542 14 137 4.8 0.0 0.00 0.00 0.13 92 1007.0
20260506180041 14 222 3.2 0.0 0.00 0.00 0.10 91 1006.9
20260506174539 15 94 1.6 0.0 0.00 0.00 0.08 90 1006.9
20260506173044 15 147 1.6 0.0 0.00 0.00 0.05 89 1007.1
20260506171547 15 175 1.6 0.0 0.00 0.00 0.00 88 1007.7
20260506170035 16 179 3.2 0.0 0.00 0.00 0.00 86 1008.0
20260506164532 16 217 4.8 0.0 0.00 0.00 0.00 84 1008.1
20260506163035 16 227 6.4 0.0 0.00 0.00 0.00 82 1008.1
20260506161533 17 215 4.8 0.0 0.00 0.00 0.00 83 1008.2
20260506160031 16 296 4.8 0.0 0.00 0.00 0.00 82 1008.2
20260506154529 17 221 6.4 0.0 0.00 0.00 0.00 80 1008.4
20260506153027 17 247 3.2 0.0 0.00 0.00 0.00 80 1008.7
20260506151528 17 277 6.4 0.0 0.00 0.00 0.00 79 1008.4
20260506150028 17 71 4.8 0.0 0.00 0.00 0.00 79 1008.3
20260506144526 17 332 4.8 0.0 0.00 0.00 0.00 80 1008.3
20260506143024 17 151 6.4 0.0 0.00 0.00 0.00 80 1008.5
20260506141523 17 84 6.4 0.0 0.00 0.00 0.00 81 1008.5
20260506140027 17 217 4.8 0.0 0.00 0.00 0.00 82 1008.5
20260506134521 16 163 6.4 0.0 0.00 0.00 0.00 83 1008.7
20260506133026 16 244 6.4 0.0 0.00 0.00 0.00 83 1008.4
20260506131518 16 240 4.8 0.0 0.00 0.00 0.00 84 1008.6
20260506130018 16 157 4.8 0.0 0.00 0.00 0.00 85 1008.6
20260506124518 15 182 4.8 0.0 0.00 0.00 0.00 86 1008.8
20260506123011 15 165 4.8 0.0 0.00 0.00 0.00 87 1009.1
20260506121510 15 179 3.2 0.0 0.00 0.00 0.00 88 1009.1
20260506120010 14 232 4.8 0.0 0.00 0.00 0.00 89 1009.1
20260506114529 14 150 4.8 0.0 0.00 0.00 0.00 89 1008.9
20260506113009 13 236 3.2 0.0 0.00 0.00 0.00 90 1009.1
20260506111509 13 210 1.6 0.0 0.00 0.00 0.00 90 1009.0
20260506110008 13 236 3.2 0.0 0.00 0.00 0.00 90 1009.3
20260506104507 13 252 3.2 0.0 0.00 0.00 0.00 91 1009.2
20260506103006 13 230 3.2 0.0 0.00 0.00 0.00 91 1009.2
20260506101505 13 145 1.6 0.0 0.00 0.00 0.00 91 1008.9
20260506100009 12 147 1.6 0.0 0.00 0.00 0.00 91 1009.0
20260506094504 12 176 3.2 0.0 0.00 0.00 0.00 91 1008.8
20260506093003 12 175 1.6 0.0 0.00 0.00 0.00 91 1008.9
20260506091503 13 159 3.2 0.0 0.00 0.00 0.00 90 1009.0
20260506090001 13 263 3.2 0.0 0.00 0.00 0.00 90 1009.0
20260506084604 13 199 3.2 0.0 0.00 0.00 0.00 90 1009.1
20260506083058 13 180 3.2 0.0 0.00 0.00 0.00 89 1009.2
20260506081556 13 101 3.2 0.0 0.00 0.00 0.00 89 1009.2
20260506073052 13 184 3.2 0.0 0.00 0.00 0.00 87 1009.2
20260506071557 13 54 3.2 0.0 0.00 0.00 0.00 87 1009.3
20260506061543 15 222 3.2 0.0 0.00 0.00 0.00 84 1009.2
20260506044539 15 200 4.8 0.0 0.00 0.00 0.00 78 1009.8
20260506043030 16 215 4.8 0.0 0.00 0.00 0.00 77 1009.8
20260506041528 16 245 4.8 0.0 0.00 0.00 0.00 76 1009.8
20260506040026 16 157 6.4 0.0 0.00 0.00 0.00 76 1009.8
20260506034526 16 219 4.8 0.0 0.00 0.00 0.00 76 1009.8
20260506033033 16 182 6.4 0.0 0.00 0.00 0.00 75 1009.8
20260506031532 16 231 4.8 0.0 0.00 0.00 0.00 74 1009.7
20260506030046 16 198 4.8 0.0 0.00 0.00 0.00 74 1009.7
20260506024529 16 188 4.8 0.0 0.00 0.00 0.00 74 1009.6
20260506023024 16 236 4.8 0.0 0.00 0.00 0.00 74 1009.6
20260506021523 16 138 4.8 0.0 0.00 0.00 0.00 73 1009.7
20260506020023 16 101 4.8 0.0 0.00 0.00 0.00 72 1009.6
20260506014523 16 312 4.8 0.0 0.00 0.00 0.00 71 1009.4
20260506013022 17 232 4.8 0.0 0.00 0.00 0.00 70 1009.3
20260506011530 17 263 6.4 0.0 0.00 0.00 0.00 69 1009.1
20260506010021 17 225 6.4 0.0 0.00 0.00 0.00 68 1008.9
20260506004540 17 219 6.4 0.0 0.00 0.00 0.00 67 1008.8
20260506003024 17 209 4.8 0.0 0.00 0.00 0.00 67 1008.6
20260506001522 17 330 4.8 0.0 0.00 0.00 0.00 67 1008.2
20260506000024 18 254 6.4 0.0 0.00 0.00 0.00 66 1008.1
20260505234519 18 197 6.4 0.0 0.00 0.00 0.00 66 1008.0
20260505233018 18 254 6.4 0.0 0.00 0.00 0.00 65 1007.8
20260505231525 19 235 6.4 0.0 0.00 0.00 0.00 64 1007.6
20260505230024 19 132 9.7 0.0 0.00 0.00 0.00 63 1007.5
20260505224517 20 240 9.7 0.0 0.00 0.00 0.00 62 1007.3
20260505223015 21 184 8.0 0.0 0.00 0.00 0.00 60 1007.0
20260505221518 21 175 8.0 0.0 0.00 0.00 0.00 58 1007.4
20260505220014 22 168 6.4 0.0 0.00 0.00 0.00 57 1007.3
20260505214514 22 101 3.2 0.0 0.00 0.00 0.00 57 1007.3
20260505213013 22 103 6.4 0.0 0.00 0.00 0.00 57 1007.2
20260505211513 22 119 6.4 0.0 0.00 0.00 0.00 58 1007.1
20260505210012 23 260 6.4 0.0 0.00 0.00 0.00 56 1007.2
20260505204514 23 178 6.4 0.0 0.00 0.00 0.00 55 1007.2
20260505203023 23 222 6.4 0.0 0.00 0.00 0.00 54 1007.2